Location: ??????
(31.2056°N, 45.3906°E)
Time: 13:58:34
(UTC+00:00)

ATLAS 5 CENTAUR R/B - Pass Details

Date: 09 April 2020
Orbit: 241 x 12937 km, 20.2° (Epoch: 04 June)

Event Time Altitude Azimuth Distance (km) Brightness Sun altitude
Rises 18:55:11 0° 257° (WSW) 3,905 5.5 -40.8°
Reaches altitude 10° 18:56:59 10° 251° (WSW) 3,425 5.0 -41.0°
Enters shadow 19:01:48 41° 222° (SW) 2,891 4.2 -41.7°
Exits shadow 19:38:44 20° 114° (ESE) 11,413 7.0 -46.3°
Drops below altitude 10° 19:58:28 10° 111° (ESE) 14,794 7.7 -48.2°
Sets 20:26:25 0° 110° (ESE) 17,847 8.2 -50.0°
